Simultaneous Nadir Overpasses (SNOs) Predictions

Prediction of SNOs between GOES-17 and NOAA-20 Satellite Orbit:

Table of predicted SNOs for the next 14.0 days since TLE Epoch: 12/5/2020
Index Date Time (GOES-17) GOES-17 Lat,Lon NOAA-20 Lat,Lon Distance(km) Time Diff (sec)
1 12/06/2020 10:36:55 -0.00,-137.20 0.25,-138.38 133.81 80
2 12/07/2020 10:20:51 -0.00,-137.19 -0.76,-133.84 381.35 80
3 12/08/2020 22:40:07 0.01,-137.17 -0.45,-139.14 225.53 80
4 12/09/2020 22:24:03 0.00,-137.15 0.56,-134.61 289.43 80
5 12/11/2020 10:43:11 -0.00,-137.13 0.62,-139.88 313.50 80
6 12/12/2020 10:27:07 0.00,-137.11 -0.39,-135.35 200.94 80
7 12/13/2020 22:46:23 -0.00,-137.08 -0.82,-140.65 407.36 80
8 12/14/2020 22:30:18 -0.01,-137.05 0.19,-136.12 106.62 80
9 12/16/2020 10:52:07 0.01,-137.02 0.98,-141.39 497.57 80
10 12/17/2020 10:30:42 0.00,-137.00 -0.03,-136.86 15.95 80
